Home   Weather   Germantown   Past weeks

Flag for USA Past Weather in Germantown, Maryland, USA — Yesterday and Last 2 Weeks

Now
43 °F

Fog.


Feels Like: 43 °F
Forecast: 36 / 47 °F
Wind: No wind

Location: Frederick Municipal Airport

Current Time: Jan 20, 2017 at 5:06:58 pm

Latest Report: Jan 20, 2017 at 3:47 pm


Visibility: 2 mi

Pressure: 29.89 "Hg

Humidity: 100%

Dew Point: 43 °F

Location of GermantownLocation

Past Weather in Germantown — Graph

°F

Germantown Temperature Yesterday

Maximum temperature yesterday: 48 °F (at 12:47 pm)
Minimum temperature yesterday: 30 °F (at 10:40 pm)
Average temperature yesterday: 42 °F

High & Low Weather Summary for the Past Weeks

 TemperatureHumidityPressure
High66 °F (Jan 12, 1:55 pm)100% (Jan 5, 9:00 pm)30.78 "Hg (Jan 5, 9:00 pm)
Low9 °F (Jan 9, 2:40 am)32% (Jan 11, 1:47 pm)29.88 "Hg (Jan 20, 2:50 pm)
Average34 °F79%30.31 "Hg
* Reported Jan 5 3:47 pm — Jan 20 3:47 pm, Germantown, Weather by CustomWeather, © 2017

Note: Actual official high and low records may vary slightly from our data, if they occured in-between our weather recording intervals... More about our weather records

Advertising

Germantown Weather History for the Previous 24 Hours

Scroll right to see more
 ConditionsComfort  
Time TempWeatherWind HumidityBarometerVisibility
3:47 pm
Fri, Jan 20
43 °FFog.No wind100%29.89 "Hg2 mi
2:50 pm43 °FFog.No wind100%29.88 "Hg2 mi
1:47 pm43 °FFog.3 mph100%29.89 "Hg2 mi
12:55 pm43 °FFog.3 mph100%29.92 "Hg2 mi
11:47 am39 °FFog.5 mph100%29.95 "Hg2 mi
10:47 am37 °FFog.3 mph100%29.97 "Hg2 mi
9:47 am37 °FLight rain. Mostly cloudy.No wind100%29.99 "Hg2 mi
9:05 am36 °FChilly.No wind100%29.99 "HgN/A
7:47 am34 °FFog.No wind100%29.99 "Hg5 mi
6:55 am32 °FIce fog.No wind100%29.99 "Hg5 mi
6:20 am32 °FPassing clouds.No wind100%30.00 "Hg7 mi
6:00 am32 °FIce fog.No wind100%30.00 "Hg5 mi
5:40 am32 °FIce fog.No wind100%30.00 "Hg3 mi
5:00 am30 °FIce fog.No wind100%30.00 "Hg5 mi
4:40 am32 °FClear.No wind100%30.00 "Hg7 mi
4:00 am32 °FIce fog.No wind100%30.01 "Hg5 mi
3:40 am32 °FIce fog.No wind100%30.01 "Hg5 mi
3:00 am32 °FClear.No wind100%30.03 "Hg7 mi
2:40 am32 °FClear.No wind100%30.03 "Hg7 mi
2:00 am30 °FIce fog.3 mph100%30.03 "Hg5 mi
1:40 am30 °FClear.No wind100%30.04 "Hg7 mi
1:00 am30 °FClear.No wind100%30.02 "Hg7 mi
12:40 am28 °FIce fog.No wind100%30.03 "Hg5 mi
12:00 am28 °FIce fog.No wind100%30.05 "Hg4 mi
11:40 pm
Thu, Jan 19
30 °FIce fog.No wind100%30.05 "Hg1 mi
11:00 pm30 °FClear.No wind100%30.05 "Hg7 mi
10:40 pm30 °FIce fog.No wind100%30.05 "Hg4 mi
10:00 pm32 °FClear.No wind100%30.05 "Hg7 mi
9:40 pm32 °FIce fog.No wind100%30.05 "Hg2 mi
9:00 pm32 °FClear.No wind100%30.05 "Hg7 mi
5:47 pm43 °FClear.No wind81%30.04 "Hg10 mi
Weather by CustomWeather, © 2017

See weather overviewHow to use our weather pages